When you browse on this site, cookies collect data to enhance your experience and personalize the content and advertising you see.
Visit our Privacy Policy to learn more. By continuing to use the site, you agree to this use of cookies and data.
  • Em Portugal
  • Lista de países
  • Para 7 dias
  • Temperatura da água
  • Mapas de satélite
  • Mapa do tempo
  • Widgets de tempo
  • user-avatar
    Iniciar Sessão

    Previsão horária em Tatinki

    Hoje, 27 Maio, Segunda-feira

    Tempo Temperatura Precipitação Vento Pressão Humidade
    00:00 +11°C° 0 mm 3 m/s 736 mmHg 93%
    01:00 +11°C° 0 mm 3 m/s 737 mmHg 93%
    02:00 +10°C° 0 mm 3 m/s 737 mmHg 93%
    03:00 +10°C° 0 mm 3 m/s 738 mmHg 93%
    04:00 +10°C° 0 mm 3 m/s 738 mmHg 93%
    05:00 +10°C° 0 mm 3 m/s 738 mmHg 93%
    06:00 +12°C° 0 mm 4 m/s 739 mmHg 87%
    07:00 +13°C° 0 mm 4 m/s 739 mmHg 82%
    08:00 +14°C° 0 mm 4 m/s 740 mmHg 76%
    09:00 +15°C° 0 mm 4 m/s 740 mmHg 72%
    10:00 +18°C° 0 mm 4 m/s 740 mmHg 69%
    11:00 +19°C° 0 mm 4 m/s 740 mmHg 65%
    12:00 +19°C° 0 mm 5 m/s 741 mmHg 64%
    13:00 +20°C° 0 mm 5 m/s 741 mmHg 63%
    14:00 +21°C° 0 mm 5 m/s 741 mmHg 62%
    15:00 +21°C° 0 mm 4 m/s 741 mmHg 65%
    16:00 +21°C° 0 mm 4 m/s 741 mmHg 68%
    17:00 +21°C° 0 mm 3 m/s 741 mmHg 71%
    18:00 +19°C° 0 mm 3 m/s 741 mmHg 77%
    19:00 +18°C° 0 mm 3 m/s 741 mmHg 82%
    20:00 +16°C° 0 mm 3 m/s 741 mmHg 88%
    21:00 +16°C° 0 mm 3 m/s 742 mmHg 90%
    22:00 +14°C° 0 mm 3 m/s 742 mmHg 91%
    23:00 +14°C° 0 mm 3 m/s 742 mmHg 93%

    Amanhã, 28 Maio, Terça-feira

    Tempo Temperatura Precipitação Vento Pressão Humidade
    00:00 +14°C° 0 mm 3 m/s 742 mmHg 94%
    01:00 +13°C° 0 mm 3 m/s 742 mmHg 94%
    02:00 +13°C° 0 mm 3 m/s 742 mmHg 95%
    03:00 +14°C° 0 mm 3 m/s 743 mmHg 94%
    04:00 +14°C° 0 mm 3 m/s 743 mmHg 94%
    05:00 +16°C° 0 mm 3 m/s 743 mmHg 94%
    06:00 +17°C° 0 mm 4 m/s 743 mmHg 89%
    07:00 +19°C° 0 mm 4 m/s 743 mmHg 85%
    08:00 +21°C° 0 mm 5 m/s 743 mmHg 81%
    09:00 +22°C° 0 mm 5 m/s 743 mmHg 77%
    10:00 +23°C° 0 mm 5 m/s 743 mmHg 72%
    11:00 +25°C° 0 mm 5 m/s 743 mmHg 68%
    12:00 +26°C° 0.1 mm 6 m/s 743 mmHg 68%
    13:00 +26°C° 0.1 mm 6 m/s 743 mmHg 67%
    14:00 +26°C° 0.1 mm 6 m/s 743 mmHg 67%
    15:00 +26°C° 0 mm 5 m/s 743 mmHg 69%
    16:00 +25°C° 0 mm 5 m/s 743 mmHg 72%
    17:00 +25°C° 0 mm 4 m/s 743 mmHg 75%
    18:00 +23°C° 0 mm 4 m/s 743 mmHg 79%
    19:00 +21°C° 0 mm 4 m/s 743 mmHg 84%
    20:00 +20°C° 0 mm 4 m/s 743 mmHg 89%
    21:00 +19°C° 0 mm 4 m/s 743 mmHg 90%
    22:00 +18°C° 0 mm 4 m/s 743 mmHg 91%
    23:00 +18°C° 0 mm 4 m/s 743 mmHg 93%

    Depois de amanhã, 29 Maio, Quarta-feira

    Tempo Temperatura Precipitação Vento Pressão Humidade
    00:00 +18°C° 0 mm 4 m/s 744 mmHg 93%
    01:00 +17°C° 0 mm 4 m/s 744 mmHg 93%
    02:00 +17°C° 0 mm 4 m/s 744 mmHg 93%
    03:00 +17°C° 0 mm 4 m/s 744 mmHg 91%
    04:00 +17°C° 0 mm 4 m/s 744 mmHg 90%
    05:00 +18°C° 0 mm 4 m/s 744 mmHg 88%
    06:00 +19°C° 0 mm 4 m/s 744 mmHg 83%
    07:00 +21°C° 0 mm 5 m/s 744 mmHg 78%
    08:00 +22°C° 0 mm 5 m/s 744 mmHg 74%
    09:00 +23°C° 0 mm 5 m/s 744 mmHg 70%
    10:00 +24°C° 0 mm 6 m/s 744 mmHg 67%
    11:00 +26°C° 0 mm 6 m/s 744 mmHg 63%
    12:00 +26°C° 0 mm 6 m/s 744 mmHg 63%
    13:00 +26°C° 0 mm 6 m/s 744 mmHg 62%
    14:00 +27°C° 0 mm 6 m/s 744 mmHg 61%
    15:00 +26°C° 0 mm 5 m/s 744 mmHg 65%
    16:00 +26°C° 0 mm 5 m/s 744 mmHg 69%
    17:00 +26°C° 0 mm 4 m/s 744 mmHg 73%
    18:00 +23°C° 0 mm 4 m/s 744 mmHg 78%
    19:00 +22°C° 0 mm 3 m/s 744 mmHg 84%
    20:00 +20°C° 0 mm 3 m/s 744 mmHg 89%
    21:00 +19°C° 0 mm 3 m/s 744 mmHg 89%
    22:00 +19°C° 0 mm 3 m/s 744 mmHg 90%
    23:00 +18°C° 0 mm 3 m/s 744 mmHg 90%

    30 Maio, Quinta-feira

    Tempo Temperatura Precipitação Vento Pressão Humidade
    00:00 +18°C° 0 mm 3 m/s 744 mmHg 90%
    01:00 +17°C° 0 mm 3 m/s 744 mmHg 91%
    02:00 +17°C° 0 mm 3 m/s 744 mmHg 92%
    03:00 +17°C° 0 mm 3 m/s 744 mmHg 91%
    04:00 +17°C° 0 mm 3 m/s 744 mmHg 89%
    05:00 +18°C° 0 mm 4 m/s 744 mmHg 88%
    06:00 +19°C° 0 mm 4 m/s 745 mmHg 83%
    07:00 +21°C° 0 mm 5 m/s 745 mmHg 78%
    08:00 +23°C° 0 mm 5 m/s 745 mmHg 72%
    09:00 +25°C° 0 mm 5 m/s 745 mmHg 68%
    10:00 +26°C° 0 mm 6 m/s 745 mmHg 64%
    11:00 +27°C° 0 mm 6 m/s 744 mmHg 60%
    12:00 +27°C° 0 mm 6 m/s 744 mmHg 60%
    13:00 +27°C° 0 mm 6 m/s 744 mmHg 61%
    14:00 +28°C° 0 mm 6 m/s 744 mmHg 61%
    15:00 +27°C° 0 mm 5 m/s 744 mmHg 64%
    16:00 +27°C° 0 mm 4 m/s 744 mmHg 68%
    17:00 +27°C° 0 mm 4 m/s 744 mmHg 72%
    18:00 +25°C° 0 mm 3 m/s 744 mmHg 76%
    19:00 +24°C° 0 mm 3 m/s 744 mmHg 81%
    20:00 +21°C° 0 mm 3 m/s 744 mmHg 85%
    21:00 +20°C° 0 mm 3 m/s 744 mmHg 86%
    22:00 +20°C° 0 mm 3 m/s 744 mmHg 87%
    23:00 +19°C° 0 mm 3 m/s 744 mmHg 87%

    31 Maio, Sexta-feira

    Tempo Temperatura Precipitação Vento Pressão Humidade
    00:00 +19°C° 0 mm 3 m/s 744 mmHg 88%
    01:00 +19°C° 0 mm 3 m/s 744 mmHg 89%
    02:00 +18°C° 0 mm 3 m/s 744 mmHg 89%
    03:00 +19°C° 0 mm 3 m/s 744 mmHg 88%
    04:00 +19°C° 0 mm 3 m/s 744 mmHg 87%
    05:00 +19°C° 0 mm 3 m/s 744 mmHg 86%
    06:00 +21°C° 0 mm 4 m/s 744 mmHg 82%
    07:00 +22°C° 0 mm 4 m/s 744 mmHg 78%
    08:00 +25°C° 0 mm 4 m/s 744 mmHg 74%
    09:00 +26°C° 0 mm 5 m/s 744 mmHg 70%
    10:00 +27°C° 0 mm 5 m/s 744 mmHg 65%
    11:00 +28°C° 0 mm 5 m/s 743 mmHg 61%
    12:00 +28°C° 0 mm 5 m/s 743 mmHg 60%
    13:00 +29°C° 0 mm 5 m/s 743 mmHg 60%
    14:00 +29°C° 0 mm 5 m/s 743 mmHg 59%
    15:00 +28°C° 0.3 mm 4 m/s 743 mmHg 64%
    16:00 +28°C° 0.3 mm 4 m/s 743 mmHg 69%
    17:00 +28°C° 0.3 mm 3 m/s 742 mmHg 74%
    18:00 +26°C° 0.6 mm 3 m/s 742 mmHg 77%
    19:00 +24°C° 0.6 mm 2 m/s 742 mmHg 80%
    20:00 +23°C° 0.6 mm 2 m/s 742 mmHg 83%
    21:00 +21°C° 0.7 mm 2 m/s 742 mmHg 85%
    22:00 +21°C° 0.7 mm 2 m/s 742 mmHg 87%
    23:00 +20°C° 0.7 mm 2 m/s 742 mmHg 89%

    1 Junho, Sábado

    Tempo Temperatura Precipitação Vento Pressão Humidade
    00:00 +20°C° 0 mm 2 m/s 742 mmHg 90%
    01:00 +19°C° 0 mm 3 m/s 742 mmHg 91%
    02:00 +19°C° 0 mm 3 m/s 742 mmHg 92%
    03:00 +19°C° 0.1 mm 3 m/s 742 mmHg 92%
    04:00 +19°C° 0.1 mm 3 m/s 742 mmHg 91%
    05:00 +19°C° 0.1 mm 2 m/s 742 mmHg 91%
    06:00 +21°C° 0.3 mm 3 m/s 742 mmHg 86%
    07:00 +24°C° 0.3 mm 3 m/s 742 mmHg 82%
    08:00 +25°C° 0.3 mm 3 m/s 742 mmHg 78%
    09:00 +27°C° 0.2 mm 3 m/s 742 mmHg 74%
    10:00 +28°C° 0.2 mm 4 m/s 742 mmHg 70%
    11:00 +29°C° 0.2 mm 4 m/s 741 mmHg 66%
    12:00 +30°C° 0.2 mm 5 m/s 741 mmHg 64%
    13:00 +30°C° 0.2 mm 5 m/s 741 mmHg 63%
    14:00 +30°C° 0.2 mm 5 m/s 741 mmHg 61%
    15:00 +30°C° 0.1 mm 4 m/s 741 mmHg 65%
    16:00 +30°C° 0.1 mm 4 m/s 741 mmHg 68%
    17:00 +30°C° 0.1 mm 3 m/s 740 mmHg 72%
    18:00 +28°C° 0.2 mm 3 m/s 741 mmHg 75%
    19:00 +26°C° 0.2 mm 3 m/s 741 mmHg 78%
    20:00 +24°C° 0.2 mm 3 m/s 741 mmHg 82%
    21:00 +24°C° 0.1 mm 3 m/s 741 mmHg 82%
    22:00 +22°C° 0.1 mm 3 m/s 741 mmHg 83%
    23:00 +22°C° 0.1 mm 3 m/s 741 mmHg 84%
    Mostrar mais